User: anonymous   Login
Location: Theydon Bois
(51.6750°N, 0.1050°E)
Time: 16:09:24
(UTC+00:00)
Language:

H-2A R/B - Orbit

View from above orbital plane
View from above orbital plane
View from above satellite
View from above satellite

Ground track
Ground track

The orbit data is extracted from the following two-line orbital elements,

1 27601U 02056E   18021.14968751  .00000046  00000-0  31781-4 0  9996
2 27601  98.3496  86.1092 0072240   9.9445  17.4239 14.31820647788992
Epoch (UTC): 21 January 2018 03:35:33
Eccentricity: 0.0072240
inclination: 98.3496°
perigee height: 734 km
apogee height: 837 km
right ascension of ascending node: 86.1092°
argument of perigee: 9.9445°
revolutions per day: 14.31820647
mean anomaly at epoch: 17.4239°
orbit number at epoch: 78899

The dashed part of the orbit path shows where the satellite is in the earth's shadow,  

DLR